INTELSAT 32E (IS-32E) (41945 NORAD) Tracking and Keplerian Element Data

This shows tracking and keplerian element data for the satellite.

Feedback or suggestion? Click here.




ElementValue
Catalog41945
NameINTELSAT 32E (IS-32E)
Epoch Orbit1686
Epoch Day261.8595559
Epoch Year2021
RAAN161.4317
Inclination0.0188
Eccentricity5.11E-05
Argument of Perigee320.1489
Mean Anonmoly142.6724
Mean Motion1.00272729
Decay Rate-2.93E-06
L11 41945U 17007B 21261.85955590 -.00000293 00000-0 00000-0 0 9991
L22 41945 0.0188 161.4317 0000511 320.1489 142.6724 1.00272729 16866

Live tracking and technical data element details for INTELSAT 32E (IS-32E) (NORAD 41945). INTELSAT 32E (IS-32E) can be tracked NOW for your location showing map with azimuth and elevation plus other details from your city location.

Track the satellite on the map from your city or location and see movement details for azimuth, elevation, latitude, longitude, range, height, and movement on the map or in text.







IsCatalogInMostPopularTable: catalog: 41945, numindb: 629
Update: records affected: 1



GetName: 41945 INTELSAT 32E (IS-32E)

Hit Count: updated at: Sun, 26 Sep 2021 00:27:52 GMT